Location: Decatur Area Astronomy Club
(40.0275°N, 88.7810°W)
Time: 19:21:24
(UTC-05:00)

Amateur Radio Satellites - All Passes

Search period start: 01 October 2014 18:51
Search period end: 02 October 2014 18:51
Location: Decatur Area Astronomy Club, 40.0275°N, 88.7810°W

Satellite Date Start Highest point End Downlink Frequencies (MHz)
Time Altitude Azimuth
JAS-2 01 Oct 18:53:07 18:57:27 27° 266° (W) 19:01:58 435.800 - 435.900 CW/SSB, 435.910 FM
PCSat 01 Oct 18:55:42 19:01:10 89° 61° (ENE) 19:06:35 145.825 MHz
KITSAT 1 01 Oct 18:57:06 19:04:10 32° 315° (NW) 19:11:16 435.175 FM
STRAND 1 01 Oct 19:15:00 19:19:46 37° 98° (E) 19:24:31 ?
SO-50 01 Oct 19:38:17 19:42:45 73° 303° (WNW) 19:47:21 436.795 FM
UOSAT-12 01 Oct 20:03:59 20:07:09 19° 110° (ESE) 20:10:22 437.025 FM, 437.400 FM
PANSAT 01 Oct 20:13:45 20:15:36 13° 172° (S) 20:17:26 not established
Sapphire 01 Oct 20:14:32 20:18:33 21° 254° (WSW) 20:22:34 437.095 MHz 1200 baud AX-25 AFSK
SO-67 01 Oct 20:17:37 20:19:29 14° 267° (W) 20:21:22 435.3500 MHz FM
HO-68 01 Oct 20:19:58 20:26:40 46° 66° (ENE) 20:33:23 435.675 MHz FM
PCSat 01 Oct 20:42:16 20:43:44 11° 258° (WSW) 20:45:13 145.825 MHz
Oscar 11 01 Oct 20:50:32 20:53:31 18° 66° (ENE) 20:56:32 145.825 FM, Beacon 2401.500 USB
STRAND 1 01 Oct 20:54:33 20:58:46 26° 294° (WNW) 21:02:58 ?
KITSAT 1 01 Oct 21:00:28 21:02:41 11° 343° (NNW) 21:04:55 435.175 FM
ISS 01 Oct 21:15:31 21:18:12 23° 133° (SE) 21:20:54 145.800 FM
FUNcube-1 01 Oct 21:16:56 21:19:39 16° 64° (ENE) 21:22:23 145.950 - 145.970 MHz USB
UKube-1 01 Oct 21:19:18 21:23:28 49° 72° (ENE) 21:27:40 145.840 MHz, 145.915 MHz
SO-50 01 Oct 21:22:30 21:24:10 12° 323° (NW) 21:25:51 436.795 FM
Saudisat 1A 01 Oct 21:24:31 21:26:31 13° 39° (NE) 21:28:30 436.775 MHz
UOSAT-12 01 Oct 21:42:25 21:46:54 49° 307° (NW) 21:51:30 437.025 FM, 437.400 FM
PANSAT 01 Oct 21:52:58 21:55:03 14° 185° (S) 21:57:08 not established
ZACube-1 01 Oct 22:00:23 22:04:40 44° 72° (ENE) 22:09:04 437.345 MHz
HO-68 01 Oct 22:08:08 22:14:27 34° 263° (W) 22:20:50 435.675 MHz FM
Oscar 11 01 Oct 22:25:19 22:29:24 39° 262° (W) 22:33:31 145.825 FM, Beacon 2401.500 USB
FUNcube-1 01 Oct 22:51:08 22:55:33 53° 260° (W) 23:00:05 145.950 - 145.970 MHz USB
ISS 01 Oct 22:51:36 22:54:45 39° 329° (NNW) 22:57:55 145.800 FM
UKube-1 01 Oct 22:57:40 22:59:56 14° 268° (W) 23:02:13 145.840 MHz, 145.915 MHz
KITSAT 1 01 Oct 23:00:56 23:02:48 11° 16° (NNE) 23:04:41 435.175 FM
Saudisat 1A 01 Oct 23:02:19 23:06:46 87° 58° (ENE) 23:11:10 436.775 MHz
ZACube-1 01 Oct 23:38:14 23:41:16 18° 268° (W) 23:44:22 437.345 MHz
ISS 02 Oct 00:30:26 00:32:09 13° 348° (NNW) 00:33:52 145.800 FM
KITSAT 1 02 Oct 00:54:28 01:01:26 31° 44° (NE) 01:08:22 435.175 FM
Oscar 16 02 Oct 01:29:31 01:33:14 20° 93° (E) 01:36:56 437.025 USB, Beacon 2401.1428
RS-15 02 Oct 01:36:05 01:46:16 45° 109° (ESE) 01:56:18 29.354 - 29.394 USB, Beacon 29.352 USB
ISS 02 Oct 02:08:28 02:09:59 13° 9° (N) 02:11:30 145.800 FM
Oscar 19 02 Oct 02:26:26 02:31:35 69° 102° (ESE) 02:36:40 437.125 CW, 437.150 USB
SO-50 02 Oct 02:31:23 02:33:54 14° 39° (NE) 02:36:26 436.795 FM
TMSAT-1 02 Oct 02:39:41 02:42:10 13° 90° (E) 02:44:39 436.925 FM
ITAMSAT 1 02 Oct 02:40:30 02:45:23 38° 98° (E) 02:50:13 435.822 SSB
Uribyol 2 02 Oct 02:41:05 02:46:03 41° 99° (E) 02:50:57 436.500 FM
KITSAT 1 02 Oct 02:49:27 02:57:28 69° 245° (WSW) 03:05:27 435.175 FM
JAS-1B 02 Oct 02:50:05 02:55:45 63° 102° (ESE) 03:01:58 435.800 - 435.900 CW/SSB
Oscar 16 02 Oct 03:07:53 03:12:49 47° 289° (WNW) 03:17:42 437.025 USB, Beacon 2401.1428
AO-Echo 02 Oct 03:09:13 03:14:18 89° 284° (WNW) 03:19:30 ?
AO-27 02 Oct 03:18:59 03:24:15 90° 284° (WNW) 03:29:29 436.795 MHz FM
ISS 02 Oct 03:44:25 03:47:28 32° 29° (NNE) 03:50:30 145.800 FM
RS-15 02 Oct 03:47:41 03:58:22 54° 311° (NW) 04:09:03 29.354 - 29.394 USB, Beacon 29.352 USB
Gurwin Techsat 1B 02 Oct 03:49:15 03:54:36 85° 104° (ESE) 03:59:55 435.225 FM
OPAL 02 Oct 03:49:19 03:53:17 23° 62° (ENE) 03:57:15 ?
Oscar 19 02 Oct 04:07:31 04:10:19 15° 299° (WNW) 04:13:07 437.125 CW, 437.150 USB
SO-50 02 Oct 04:10:21 04:15:12 83° 58° (ENE) 04:20:05 436.795 FM
MaSat-1 02 Oct 04:14:53 04:16:59 13° 102° (ESE) 04:19:03 437.345 MHz
TMSAT-1 02 Oct 04:17:18 04:22:36 72° 286° (WNW) 04:27:53 436.925 FM
ITAMSAT 1 02 Oct 04:20:23 04:24:39 26° 294° (WNW) 04:28:55 435.822 SSB
Uribyol 2 02 Oct 04:21:06 04:25:15 24° 295° (WNW) 04:29:23 436.500 FM
Uosat F 02 Oct 04:32:16 04:36:24 25° 95° (E) 04:40:30 435.120 FM
UOSAT-12 02 Oct 04:33:26 04:36:37 18° 42° (NE) 04:39:45 437.025 FM, 437.400 FM
JAS-1B 02 Oct 04:42:23 04:46:00 18° 299° (WNW) 04:49:46 435.800 - 435.900 CW/SSB
AO-7 02 Oct 04:42:59 04:50:48 44° 100° (E) 04:58:35 29.400 - 29.500 MHz
KITSAT 1 02 Oct 04:49:08 04:51:22 11° 262° (W) 04:53:37 435.175 FM
AO-Echo 02 Oct 04:50:55 04:52:20 11° 300° (WNW) 04:53:45 ?
AO-27 02 Oct 05:01:08 05:02:58 12° 301° (WNW) 05:04:47 436.795 MHz FM
ISS 02 Oct 05:21:11 05:24:07 29° 225° (SW) 05:27:03 145.800 FM
OPAL 02 Oct 05:26:49 05:31:49 47° 259° (WSW) 05:36:51 ?
Gurwin Techsat 1B 02 Oct 05:31:33 05:33:49 13° 301° (WNW) 05:36:04 435.225 FM
MaSat-1 02 Oct 05:48:05 05:52:56 71° 296° (WNW) 05:57:32 437.345 MHz
SO-50 02 Oct 05:53:40 05:55:05 11° 253° (WSW) 05:56:31 436.795 FM
JAS-2 02 Oct 05:59:42 06:06:05 40° 98° (E) 06:13:02 435.800 - 435.900 CW/SSB, 435.910 FM
RS-15 02 Oct 06:06:14 06:14:02 21° 342° (NNW) 06:21:55 29.354 - 29.394 USB, Beacon 29.352 USB
Uosat F 02 Oct 06:10:38 06:15:14 37° 291° (WNW) 06:19:49 435.120 FM
UOSAT-12 02 Oct 06:12:33 06:17:16 70° 241° (WSW) 06:21:52 437.025 FM, 437.400 FM
Hamsat 02 Oct 06:16:00 06:19:48 33° 97° (E) 06:23:34 145.90 MHz
STRAND 1 02 Oct 06:30:16 06:35:10 50° 71° (ENE) 06:40:07 ?
AO-7 02 Oct 06:35:53 06:43:30 43° 298° (WNW) 06:51:07 29.400 - 29.500 MHz
SO-67 02 Oct 07:40:01 07:43:16 38° 98° (E) 07:46:29 435.3500 MHz FM
JAS-2 02 Oct 07:44:52 07:51:01 39° 292° (WNW) 07:57:46 435.800 - 435.900 CW/SSB, 435.910 FM
Hamsat 02 Oct 07:52:30 07:55:32 20° 293° (WNW) 07:58:33 145.90 MHz
PCSat 02 Oct 07:57:27 07:59:19 12° 102° (ESE) 08:01:12 145.825 MHz
STRAND 1 02 Oct 08:11:11 08:14:38 18° 267° (W) 08:18:07 ?
RS-15 02 Oct 08:24:10 08:32:06 22° 19° (NNE) 08:40:11 29.354 - 29.394 USB, Beacon 29.352 USB
Sapphire 02 Oct 09:11:16 09:16:30 54° 113° (ESE) 09:21:47 437.095 MHz 1200 baud AX-25 AFSK
SO-67 02 Oct 09:14:39 09:15:54 12° 293° (WNW) 09:17:09 435.3500 MHz FM
HO-68 02 Oct 09:35:26 09:42:23 50° 100° (E) 09:49:18 435.675 MHz FM
PCSat 02 Oct 09:36:31 09:41:56 85° 298° (WNW) 09:47:23 145.825 MHz
Oscar 11 02 Oct 10:13:28 10:17:30 37° 98° (E) 10:21:29 145.825 FM, Beacon 2401.500 USB
RS-15 02 Oct 10:36:56 10:47:47 55° 49° (NE) 10:59:01 29.354 - 29.394 USB, Beacon 29.352 USB
FUNcube-1 02 Oct 10:41:19 10:45:22 32° 96° (E) 10:49:19 145.950 - 145.970 MHz USB
UKube-1 02 Oct 10:44:00 10:48:23 80° 284° (WNW) 10:52:44 145.840 MHz, 145.915 MHz
Sapphire 02 Oct 10:55:57 11:00:15 24° 312° (NW) 11:04:35 437.095 MHz 1200 baud AX-25 AFSK
PCSat 02 Oct 11:23:07 11:26:10 15° 318° (NW) 11:29:15 145.825 MHz
HO-68 02 Oct 11:23:37 11:29:47 32° 298° (WNW) 11:35:58 435.675 MHz FM
ZACube-1 02 Oct 11:26:28 11:31:03 81° 284° (WNW) 11:35:28 437.345 MHz
Oscar 11 02 Oct 11:50:21 11:53:24 19° 294° (WNW) 11:56:26 145.825 FM, Beacon 2401.500 USB
Oscar 19 02 Oct 12:07:19 12:09:12 12° 59° (ENE) 12:11:05 437.125 CW, 437.150 USB
FUNcube-1 02 Oct 12:17:58 12:21:35 24° 293° (WNW) 12:25:07 145.950 - 145.970 MHz USB
Oscar 16 02 Oct 12:45:42 12:50:04 28° 67° (ENE) 12:54:27 437.025 USB, Beacon 2401.1428
AO-Echo 02 Oct 12:46:43 12:48:27 12° 61° (ENE) 12:50:12 ?
RS-15 02 Oct 12:49:37 12:59:58 46° 250° (WSW) 13:10:45 29.354 - 29.394 USB, Beacon 29.352 USB
AO-27 02 Oct 12:59:40 13:02:48 16° 62° (ENE) 13:05:56 436.795 MHz FM
Saudisat 1A 02 Oct 13:08:43 13:12:21 26° 113° (ESE) 13:15:59 436.775 MHz
Gurwin Techsat 1B 02 Oct 13:32:30 13:35:42 16° 62° (ENE) 13:38:53 435.225 FM
JAS-1B 02 Oct 13:34:05 13:41:23 55° 71° (ENE) 13:47:34 435.800 - 435.900 CW/SSB
Oscar 19 02 Oct 13:42:34 13:47:46 88° 256° (WSW) 13:52:59 437.125 CW, 437.150 USB
AO-7 02 Oct 13:55:12 13:58:06 12° 45° (NE) 14:01:00 29.400 - 29.500 MHz
ITAMSAT 1 02 Oct 13:57:50 14:02:52 55° 72° (ENE) 14:07:56 435.822 SSB
Uribyol 2 02 Oct 13:58:16 14:03:21 59° 72° (ENE) 14:08:28 436.500 FM
TMSAT-1 02 Oct 13:59:22 14:03:14 21° 64° (ENE) 14:07:08 436.925 FM
MaSat-1 02 Oct 14:05:12 14:06:59 14° 50° (NE) 14:08:40 437.345 MHz
AO-Echo 02 Oct 14:21:55 14:26:35 74° 258° (WSW) 14:31:19 ?
Oscar 16 02 Oct 14:24:34 14:29:17 35° 263° (W) 14:34:01 437.025 USB, Beacon 2401.1428
AO-27 02 Oct 14:36:38 14:41:45 64° 258° (WSW) 14:46:56 436.795 MHz FM
Saudisat 1A 02 Oct 14:47:47 14:51:46 33° 310° (NW) 14:55:47 436.775 MHz
Gurwin Techsat 1B 02 Oct 15:09:49 15:15:05 66° 258° (WSW) 15:20:23 435.225 FM
KITSAT 1 02 Oct 15:24:54 15:29:56 18° 101° (ESE) 15:34:58 435.175 FM
JAS-1B 02 Oct 15:26:08 15:32:10 25° 264° (W) 15:37:30 435.800 - 435.900 CW/SSB
TMSAT-1 02 Oct 15:37:40 15:42:47 49° 260° (W) 15:47:56 436.925 FM
ITAMSAT 1 02 Oct 15:39:19 15:42:41 17° 268° (W) 15:46:04 435.822 SSB
Uribyol 2 02 Oct 15:40:03 15:43:12 16° 268° (W) 15:46:22 436.500 FM
MaSat-1 02 Oct 15:40:47 15:43:32 26° 253° (WSW) 15:45:58 437.345 MHz
AO-7 02 Oct 15:41:04 15:49:05 56° 66° (ENE) 15:57:06 29.400 - 29.500 MHz
Uosat F 02 Oct 15:44:55 15:49:20 33° 68° (ENE) 15:53:46 435.120 FM
Oscar 10/S400 02 Oct 15:59:49 16:17:25 45° 154° (SSE) 16:47:56 145.825 - 145.975 CW/USB, Beacon 145.810 USB
JAS-2 02 Oct 16:16:09 16:17:56 12° 57° (ENE) 16:19:46 435.800 - 435.900 CW/SSB, 435.910 FM
PCSat 02 Oct 16:43:58 16:46:06 12° 39° (NE) 16:48:13 145.825 MHz
Hamsat 02 Oct 17:08:59 17:12:25 23° 69° (ENE) 17:15:50 145.90 MHz
KITSAT 1 02 Oct 17:16:09 17:24:15 88° 299° (WNW) 17:32:23 435.175 FM
Uosat F 02 Oct 17:23:52 17:28:06 28° 264° (W) 17:32:22 435.120 FM
AO-7 02 Oct 17:34:59 17:42:09 32° 263° (W) 17:49:21 29.400 - 29.500 MHz
OPAL 02 Oct 17:37:22 17:42:17 47° 102° (ESE) 17:47:05 ?
JAS-2 02 Oct 17:56:58 18:02:08 86° 257° (WSW) 18:07:37 435.800 - 435.900 CW/SSB, 435.910 FM
Sapphire 02 Oct 17:59:56 18:05:00 38° 54° (NE) 18:10:02 437.095 MHz 1200 baud AX-25 AFSK
SO-67 02 Oct 18:13:53 18:15:23 13° 67° (ENE) 18:16:54 435.3500 MHz FM
PCSat 02 Oct 18:25:10 18:30:35 66° 59° (ENE) 18:35:57 145.825 MHz
SO-50 02 Oct 18:25:15 18:29:09 30° 113° (ESE) 18:33:08 436.795 FM
STRAND 1 02 Oct 18:42:32 18:46:01 18° 93° (E) 18:49:28 ?
